Regional Weather Roundup
Issued by NWS

Home | Current Version | Previous Version | Graphics & Text | Print | Product List | Glossary On
Versions: 1 2 3 4 5 6 7 8 9 10 11 12 13 14 15 16 17 18 19 20 21 22 23 24 25 26 27 28 29 30 31 32 33 34 35 36 37 38 39 40 41 42 43 44 45 46 47 48 49 50
000
ASUS43 KOAX 260002
RWRNE

WEATHER ROUNDUP FOR NEBRASKA
NATIONAL WEATHER SERVICE OMAHA NE
700 PM CDT TUE JUL 25 2017

NOTES: SATELLITE DATA IS BEING USED TO AUGMENT CLOUD COVER ABOVE
       12000 FEET.
       "FAIR" INDICATES FEW OR NO CLOUDS BELOW 12,000 FEET WITH NO
       SIGNIFICANT WEATHER AND/OR OBSTRUCTIONS TO VISIBILITY.


NEZ001>004-019>022-054>056-260100-
NEBRASKA PANHANDLE

CITY           SKY/WX    TMP DP  RH WIND       PRES   REMARKS
SCOTTSBLUFF    MOSUNNY   90  56  31 N9        29.96R
6HR MIN TEMP:  89; 6HR MAX TEMP:  97;

ALLIANCE       MOSUNNY   93  59  31 N17       29.94R HX  92
6HR MIN TEMP:  93; 6HR MAX TEMP: 101;

CHADRON        MOSUNNY   88  55  32 NE20G26   29.95R
6HR MIN TEMP:  88; 6HR MAX TEMP:  95;

GORDON         FAIR      87  61  40 NE15      29.95F
6HR MIN TEMP:  87; 6HR MAX TEMP:  95;

KIMBALL        CLOUDY    89  53  28 NW14G23   30.04R
SIDNEY         CLOUDY    91  52  26 S10       29.97S
6HR MIN TEMP:  89; 6HR MAX TEMP: 102; 6HR PCP: TRACE;

$$

NEZ057>060-069>072-079>082-260100-
SOUTHWEST NEBRASKA

CITY           SKY/WX    TMP DP  RH WIND       PRES   REMARKS
NORTH PLATTE   MOSUNNY   96  64  34 SE9       29.87F HX  98
6HR MIN TEMP:  95; 6HR MAX TEMP: 101;

IMPERIAL       CLOUDY    98  55  23 S14G26    29.88F HX  96
6HR MIN TEMP:  96; 6HR MAX TEMP: 103;

LEXINGTON      SUNNY     91  70  49 SE14G21   29.89F HX  97
MCCOOK         PTSUNNY   98  62  30 S13       29.87F HX  99
6HR MIN TEMP:  94; 6HR MAX TEMP: 103;

OGALLALA       CLOUDY   100  43  14 S6        29.87F HX  95
$$

NEZ005>010-023>029-035>040-094-260100-
NORTH CENTRAL NEBRASKA

CITY           SKY/WX    TMP DP  RH WIND       PRES   REMARKS
VALENTINE      LGT RAIN  76  64  66 N18G29    29.90R
6HR MIN TEMP:  74; 6HR MAX TEMP: 107; 6HR PCP:  0.09;

AINSWORTH      CLOUDY    93  65  39 S15G22    29.86R HX  95
BROKEN BOW     SUNNY     93  67  42 S21G35    29.90S HX  96
6HR MIN TEMP:  90; 6HR MAX TEMP:  97;

O`NEILL        MOSUNNY   89  71  54 S14       29.90R HX  95
THEDFORD       CLOUDY    95  65  37 S17G23    29.89R HX  97
$$

NEZ041-046>049-061>064-073>077-083>087-260100-
SOUTH CENTRAL NEBRASKA

CITY           SKY/WX    TMP DP  RH WIND       PRES   REMARKS
GRAND ISLAND   SUNNY     91  67  44 S17G25    29.90F HX  94
6HR MIN TEMP:  91; 6HR MAX TEMP:  95;

AURORA         SUNNY     90  67  46 S14       29.90F HX  92
HASTINGS       SUNNY     91  66  43 SE15G25   29.91F HX  93
6HR MIN TEMP:  89; 6HR MAX TEMP:  96;

HEBRON         MOSUNNY   93  66  40 S14G20    29.92F HX  96
HOLDREGE       SUNNY     90  69  49 SE10G16   29.90F HX  94
KEARNEY        SUNNY     92  70  48 S14       29.90F HX  97
YORK           SUNNY     90  70  51 S10       29.91F HX  95
$$

NEZ011>018-030>034-042>045-260100-
NORTHEAST NEBRASKA

CITY           SKY/WX    TMP DP  RH WIND       PRES   REMARKS
NORFOLK        CLOUDY    92  65  40 S17       29.91R HX  94
6HR MIN TEMP:  91; 6HR MAX TEMP:  98;

ALBION         CLOUDY    92  70  48 S14G22    29.92R HX  97
BLAIR          SUNNY     91  72  55 SE10      29.93R HX  98
COLUMBUS       PTSUNNY   90  70  51 S13       29.92R HX  95
FREMONT        SUNNY     92  66  42 S10       29.92R HX  94
TEKAMAH        CLOUDY    91  70  49 S12       29.91R HX  96
6HR MIN TEMP:  90; 6HR MAX TEMP:  95;

WAYNE          CLOUDY    90  69  49 S8        29.92R HX  94
$$

NEZ050>053-065>068-078-088>093-260100-
SOUTHEAST NEBRASKA

CITY           SKY/WX    TMP DP  RH WIND       PRES   REMARKS
LINCOLN        MOSUNNY   93  67  42 S17       29.91F HX  96
6HR MIN TEMP:  92; 6HR MAX TEMP:  97;

OMAHA EPPLEY   PTSUNNY   92  73  53 SE17      29.93R HX 100
6HR MIN TEMP:  90; 6HR MAX TEMP:  97;

BEATRICE       MOSUNNY   96  67  39 S14G21    29.92F HX 100
FALLS CITY     SUNNY     92  69  47 S14       29.94F HX  97
6HR MIN TEMP:  92; 6HR MAX TEMP:  96;

NEBRASKA CITY  SUNNY     89  72  56 S12G17    29.95S HX  97
PLATTSMOUTH    SUNNY     89  71  54 SE14G21   29.94S HX  95
$$

NEZ044-045-051>053-067-260100-
OMAHA AREA

CITY           SKY/WX    TMP DP  RH WIND       PRES   REMARKS
OMAHA EPPLEY   PTSUNNY   92  73  53 SE17      29.93R HX 100
6HR MIN TEMP:  90; 6HR MAX TEMP:  97;

BLAIR          SUNNY     91  72  55 SE10      29.93R HX  98
FREMONT        SUNNY     92  66  42 S10       29.92R HX  94
MILLARD        SUNNY     93  76  57 SE14G23   29.92R HX 105
OFFUTT AFB     SUNNY     91  73  56 SE18G25   29.93S HX  99
PLATTSMOUTH    SUNNY     89  71  54 SE14G21   29.94S HX  95
WAHOO          FAIR      90  67  47 S10       29.92R HX  93
$$




USA.gov is the U.S. government's official web portal to all federal, state and local government web resources and services.